Location: Nairn
(57.5833°N, 3.8667°W)
Time: 20:35:51
(UTC+00:00)

S-56A Canister/Altair - Pass Details

Date: 07 October 2022
Orbit: 638 x 2494 km, 38.9° (Epoch: 05 December)

Event Time Altitude Azimuth Distance (km) Brightness Sun altitude
Exits shadow 01:31:20 11° 126° (SE) 3,438 10.7 -35.1°
Drops below altitude 10° 01:31:39 10° 124° (SE) 3,496 10.8 -35.1°
Sets 01:34:48 0° 111° (ESE) 4,196 11.4 -34.9°
